Location: Goll?ig?dem
(16.6773°N, 80.7332°E)
Time: 02:09:57
(UTC+00:00)

ATLAS 3B R/B - Pass Details

Date: 21 April 2021
Orbit: 1006 x 1189 km, 63.8° (Epoch: 21 April)

Event Time Altitude Azimuth Distance (km) Brightness Sun altitude
Rises 14:54:14 0° 347° (NNW) 3,956 6.2 -28.2°
Reaches altitude 10° 14:57:06 10° 355° (N) 3,022 5.4 -28.8°
Enters shadow 15:02:32 37° 40° (NE) 1,723 3.6 -30.0°
